Weather History for Sheboygan, WI

Change the Weather History Date:

Monday, December 23, 2013

  Actual Average Record
Temperature  
Mean Temperature 15 °F -  
Max Temperature 21 °F 30 °F 48 °F (1957)
Min Temperature 8 °F 17 °F -17 °F (1983)
Degree Days  
Heating Degree Days 50    
Moisture  
Dew Point 13 °F    
Average Humidity 88    
Maximum Humidity 96    
Minimum Humidity 78    
Precipitation  
Precipitation 0.01 in - - ()
Sea Level Pressure  
Sea Level Pressure 30.26 in    
Wind  
Wind Speed 8 mph (NW)    
Max Wind Speed 15 mph    
Max Gust Speed 20 mph    
Visibility 5 miles    
Events Fog , Snow    
Averages and records for this station are not official NWS values.
T = Trace of Precipitation, MM = Missing Value Source: NWS Daily Summary

Daily Weather History Graph

Daily Weather History Graph

Search for Another Location

Airport:

Trip Planner

Search our weather history database for the weather conditions in past years. The results will help you decide how hot, cold, wet, or windy it might be!

Date:

Astronomy

Dec. 23, 2013 Rise Set
Actual Time 7:23 AM CST 4:18 PM CST
Civil Twilight 6:50 AM CST 4:51 PM CST
Nautical Twilight 6:13 AM CST 5:27 PM CST
Astronomical Twilight 5:38 AM CST 6:02 PM CST
Moon 10:39 PM CST (12/23) 10:37 AM CST (12/23)
Length of Visible Light 10h 00m
Length of Day
8h 55m
Waning Gibbous, 68% of the Moon is Illuminated
Dec 23
Waning Gibbous
Dec 25
Last Quarter
Jan 1
New
Jan 7
First Quarter
Jan 15
Full

Hourly Weather History & Observations

Time (CST) Temp. Windchill Dew Point Humidity Pressure Visibility Wind Dir Wind Speed Gust Speed Precip Events Conditions
12:53 AM 19.9 °F 11.1 °F 18.0 °F 92% 30.12 in 5.0 mi WNW 6.9 mph - 0.00 in Snow Light Snow
1:53 AM 21.0 °F 13.4 °F 19.0 °F 92% 30.14 in 4.0 mi NNW 5.8 mph - 0.00 in Snow Light Snow
2:53 AM 19.9 °F 12.1 °F 18.0 °F 92% 30.16 in 4.0 mi NW 5.8 mph - 0.00 in Snow Light Snow
3:23 AM 19.9 °F 11.1 °F 18.0 °F 92% 30.12 in 2.5 mi NW 6.9 mph - 0.00 in Snow Light Snow
3:53 AM 19.9 °F 12.1 °F 18.0 °F 92% 30.17 in 2.5 mi NW 5.8 mph - 0.01 in Snow Light Snow
4:07 AM 19.9 °F 12.1 °F 18.0 °F 92% 30.14 in 3.0 mi NW 5.8 mph - 0.00 in Snow Light Snow
4:32 AM 19.9 °F 11.1 °F 18.0 °F 92% 30.14 in 2.5 mi WNW 6.9 mph - 0.00 in Snow Light Snow
4:53 AM 19.9 °F 11.1 °F 18.0 °F 92% 30.19 in 2.5 mi WNW 6.9 mph - 0.00 in Snow Light Snow
5:02 AM 19.9 °F 11.1 °F 18.0 °F 92% 30.15 in 2.5 mi NW 6.9 mph - 0.00 in Snow Light Snow
5:18 AM 19.9 °F 10.1 °F 18.0 °F 92% 30.16 in 1.8 mi NW 8.1 mph - 0.00 in Snow Light Snow
5:27 AM 19.9 °F 11.1 °F 18.0 °F 92% 30.16 in 2.0 mi NW 6.9 mph - 0.00 in Snow Light Snow
5:44 AM 19.9 °F 11.1 °F 18.0 °F 92% 30.16 in 3.0 mi NW 6.9 mph - 0.00 in Snow Light Snow
5:53 AM 19.9 °F 10.1 °F 18.0 °F 92% 30.21 in 4.0 mi NW 8.1 mph - 0.00 in Snow Light Snow
6:53 AM 17.1 °F 8.7 °F 15.1 °F 92% 30.23 in 10.0 mi NW 5.8 mph - 0.00 in   Mostly Cloudy
7:53 AM 16.0 °F 10.4 °F 15.1 °F 96% 30.26 in 10.0 mi NW 3.5 mph - N/A   Overcast
8:53 AM 15.1 °F 7.7 °F 14.0 °F 95% 30.28 in 10.0 mi NW 4.6 mph - N/A   Mostly Cloudy
9:53 AM 19.0 °F 11.1 °F 14.0 °F 81% 30.29 in 10.0 mi North 5.8 mph - N/A   Overcast
10:53 AM 19.9 °F 12.1 °F 14.0 °F 78% 30.28 in 10.0 mi NNE 5.8 mph - N/A   Overcast
11:53 AM 21.0 °F 16.2 °F 16.0 °F 81% 30.27 in 10.0 mi NNW 3.5 mph - 0.00 in   Overcast
12:53 PM 21.0 °F 14.6 °F 15.1 °F 78% 30.27 in 10.0 mi NNW 4.6 mph - 0.00 in   Overcast
1:53 PM 21.0 °F 14.6 °F 15.1 °F 78% 30.27 in 9.0 mi NNE 4.6 mph - 0.00 in   Overcast
2:45 PM 19.9 °F 13.4 °F 15.1 °F 81% 30.24 in 2.5 mi NNE 4.6 mph - 0.00 in Snow Light Snow
2:53 PM 19.9 °F - 16.0 °F 85% 30.29 in 1.8 mi Calm Calm - 0.00 in Snow Light Snow
3:19 PM 19.0 °F - 16.0 °F 88% 30.25 in 0.8 mi Calm Calm - 0.00 in Snow Light Snow
3:32 PM 18.0 °F 5.4 °F 15.1 °F 88% 30.26 in 0.8 mi West 11.5 mph - 0.00 in Snow Light Snow
3:46 PM 16.0 °F 2.9 °F 14.0 °F 92% 30.26 in 0.5 mi WNW 11.5 mph - 0.00 in Fog , Snow Snow
3:53 PM 16.0 °F 4.4 °F 12.9 °F 88% 30.31 in 0.5 mi WNW 9.2 mph - 0.00 in Fog , Snow Snow
4:17 PM 14.0 °F 1.2 °F 10.9 °F 88% 30.28 in 1.0 mi West 10.4 mph - 0.00 in Snow Light Snow
4:40 PM 14.0 °F 1.2 °F 10.9 °F 88% 30.28 in 2.0 mi WNW 10.4 mph - 0.00 in Snow Light Snow
4:53 PM 14.0 °F -0.2 °F 10.9 °F 88% 30.33 in 2.5 mi West 12.7 mph - 0.00 in Snow Light Snow
5:46 PM 12.9 °F -0.2 °F 10.0 °F 88% 30.29 in 2.5 mi WNW 10.4 mph - 0.00 in Snow Light Snow
5:53 PM 12.9 °F -0.9 °F 10.0 °F 88% 30.34 in 2.5 mi WNW 11.5 mph - 0.00 in Snow Light Snow
6:06 PM 12.9 °F -1.6 °F 10.0 °F 88% 30.30 in 3.0 mi WNW 12.7 mph - 0.00 in Snow Light Snow
6:35 PM 12.9 °F -1.6 °F 9.0 °F 84% 30.30 in 3.0 mi WNW 12.7 mph - 0.00 in Snow Light Snow
6:51 PM 12.2 °F -2.5 °F 8.6 °F 85% 30.30 in 2.5 mi WNW 12.7 mph - 0.00 in Snow Light Snow
6:53 PM 12.0 °F -1.3 °F 9.0 °F 88% 30.35 in 2.5 mi WNW 10.4 mph - 0.00 in Snow Light Snow
7:22 PM 12.0 °F -2.0 °F 8.1 °F 84% 30.32 in 3.0 mi WNW 11.5 mph - 0.00 in Snow Light Snow
7:53 PM 10.9 °F -5.4 °F 8.1 °F 88% 30.37 in 4.0 mi WNW 15.0 mph - 0.00 in Snow Light Snow
8:13 PM 10.9 °F -4.7 °F 7.0 °F 84% 30.31 in 3.0 mi WNW 13.8 mph - 0.00 in Snow Light Snow
8:53 PM 10.0 °F -4.5 °F 6.1 °F 84% 30.37 in 4.0 mi WNW 11.5 mph - 0.00 in Snow Light Snow
9:46 PM 10.0 °F -4.5 °F 6.1 °F 84% 30.32 in 4.0 mi WNW 11.5 mph - 0.00 in Snow Light Snow
9:53 PM 9.0 °F -5.1 °F 6.1 °F 88% 30.37 in 4.0 mi WNW 10.4 mph - 0.00 in Snow Light Snow
10:37 PM 10.0 °F -3.7 °F 6.1 °F 84% 30.33 in 9.0 mi WNW 10.4 mph - 0.00 in   Overcast
10:53 PM 9.0 °F -5.9 °F 6.1 °F 88% 30.38 in 10.0 mi NW 11.5 mph - 0.00 in   Overcast
11:06 PM 9.0 °F -6.6 °F 6.1 °F 88% 30.33 in 10.0 mi WNW 12.7 mph - N/A   Overcast
11:13 PM 9.0 °F -5.9 °F 6.1 °F 88% 30.33 in 10.0 mi NW 11.5 mph 19.6 mph N/A   Overcast
11:53 PM 8.1 °F -7.0 °F 5.0 °F 87% 30.39 in 10.0 mi NW 11.5 mph - N/A   Partly Cloudy